KCIKMI Weather Reports


time (UTC)temp
C
wind
direction
speed
KPH
gust
KPH
rain 1hr
cm
rain 24hr
cm
rain mn
cm
humidity
%
barometer
mb
20260902193008 26 189 0.0 6.4 0.00 0.30 0.00 59 1018.8
20260902191506 26 207 0.0 4.8 0.00 0.30 0.00 60 1018.7
20260902190006 26 209 0.0 4.8 0.00 0.46 0.00 59 1018.9
20260902184501 26 183 1.6 4.8 0.00 0.46 0.00 60 1019.0
20260902183111 26 231 0.0 4.8 0.00 0.46 0.00 61 1018.9
20260902181612 26 306 0.0 3.2 0.00 0.46 0.00 61 1018.7
20260902180056 25 121 0.0 4.8 0.00 0.46 0.00 61 1018.9
20260902174557 26 228 0.0 1.6 0.00 0.69 0.00 59 1019.0
20260902173101 25 179 0.0 3.2 0.00 0.69 0.00 62 1018.9
20260902171549 25 350 0.0 3.2 0.00 0.69 0.00 66 1019.0
20260902170051 25 179 0.0 4.8 0.00 0.69 0.00 66 1019.2
20260902164544 24 219 0.0 1.6 0.00 0.69 0.00 68 1019.3
20260902163044 24 11 0.0 1.6 0.00 0.69 0.00 68 1019.4
20260902161539 23 321 0.0 1.6 0.00 0.69 0.00 70 1019.4
20260902160037 23 4 0.0 3.2 0.00 0.69 0.00 69 1019.7
20260902154538 22 31 0.0 1.6 0.00 1.22 0.00 71 1020.0
20260902153034 22 244 0.0 1.6 0.00 1.22 0.00 70 1019.9
20260902151536 22 360 0.0 3.2 0.00 1.22 0.00 72 1020.1
20260902150029 22 285 0.0 1.6 0.00 1.22 0.00 72 1019.9
20260902144526 21 323 0.0 8.0 0.00 2.01 0.00 76 1020.1
20260902143023 21 351 0.0 6.4 0.00 2.01 0.00 81 1019.8
20260902141521 21 334 3.2 6.4 0.00 2.01 0.00 81 1019.7
20260902140020 20 349 0.0 1.6 0.00 2.01 0.00 83 1019.6
20260902134518 20 338 0.0 1.6 0.00 2.44 0.00 85 1019.2
20260902133015 20 344 0.0 4.8 0.00 2.44 0.00 85 1019.1
20260902131513 20 8 3.2 6.4 0.00 2.44 0.00 86 1019.1
20260902130012 19 315 0.0 3.2 0.00 2.64 0.00 87 1019.3
20260902124510 19 342 0.0 6.4 0.00 2.64 0.00 88 1019.4
20260902123008 18 340 0.0 4.8 0.00 2.64 0.00 90 1019.5
20260902121506 18 12 0.0 0.0 0.00 2.64 0.00 91 1019.4
20260902120003 18 4 0.0 4.8 0.00 2.64 0.00 93 1019.6
20260902114502 18 351 0.0 4.8 0.00 2.64 0.00 94 1019.8
20260902113057 17 356 0.0 0.0 0.00 2.64 0.00 94 1019.7
20260902111558 17 347 0.0 0.0 0.00 2.64 0.00 95 1019.5
20260902110059 17 351 0.0 0.0 0.00 2.64 0.00 95 1019.5
20260902104602 17 351 0.0 0.0 0.00 2.64 0.00 95 1019.2
20260902103105 16 351 0.0 0.0 0.00 2.64 0.00 95 1019.1
20260902101554 16 351 0.0 0.0 0.00 2.64 0.00 95 1018.9
20260902100046 16 351 0.0 0.0 0.00 2.64 0.00 95 1018.8
20260902094544 16 353 0.0 0.0 0.00 2.64 0.00 95 1018.7
20260902093042 16 346 0.0 0.0 0.00 2.64 0.00 95 1018.5
20260902091542 16 346 0.0 0.0 0.00 2.64 0.00 95 1018.4
20260902090042 16 346 0.0 0.0 0.00 2.64 0.00 95 1018.4
20260902084542 16 346 0.0 0.0 0.00 2.64 0.00 94 1018.4
20260902083044 16 343 0.0 0.0 0.00 2.64 0.00 94 1018.3
20260902081539 16 344 0.0 0.0 0.00 2.64 0.00 94 1018.2
20260902080040 16 344 0.0 0.0 0.00 2.64 0.00 93 1018.2
20260902074538 16 351 0.0 0.0 0.00 2.64 0.00 93 1018.3
20260902073036 16 349 0.0 0.0 0.00 2.64 0.00 92 1018.4
20260902071534 16 348 0.0 0.0 0.00 2.64 0.00 93 1018.3
20260902070033 16 343 0.0 0.0 0.00 2.64 0.00 94 1018.2
20260902064533 16 358 0.0 0.0 0.00 2.64 0.00 94 1018.2
20260902063050 16 358 0.0 0.0 0.00 2.64 0.00 94 1017.9
20260902061550 16 358 0.0 0.0 0.00 2.64 0.00 95 1018.1
20260902060038 16 358 0.0 0.0 0.00 2.64 0.00 95 1017.8
20260902054531 16 358 0.0 0.0 0.00 2.64 0.00 96 1017.8
20260902053034 16 358 0.0 0.0 0.00 2.64 0.00 96 1017.7
20260902051528 16 358 0.0 3.2 0.00 2.64 0.00 96 1017.7
20260902050026 16 353 0.0 0.0 0.00 2.64 0.00 97 1017.5
20260902044551 16 340 0.0 0.0 0.00 2.64 0.00 97 1017.5
20260902043022 16 343 0.0 0.0 0.00 2.64 0.00 96 1017.6
20260902041522 16 343 0.0 0.0 0.00 2.64 0.00 96 1017.7
20260902040018 16 343 0.0 0.0 0.00 2.64 2.64 96 1017.5
20260902034516 16 343 0.0 0.0 0.00 2.64 2.64 96 1017.2
20260902033015 16 343 0.0 0.0 0.00 2.64 2.64 96 1017.1
20260902031534 16 340 0.0 0.0 0.00 2.64 2.64 96 1017.1
20260902030011 16 340 0.0 0.0 0.00 2.64 2.64 96 1017.1
20260902024511 16 340 0.0 0.0 0.00 2.64 2.64 96 1016.9
20260902023020 16 339 0.0 0.0 0.00 2.64 2.64 96 1016.9
20260902021508 16 327 0.0 0.0 0.00 2.64 2.64 97 1016.8
20260902020009 16 326 0.0 0.0 0.00 2.64 2.64 97 1016.7
20260902014513 16 326 0.0 0.0 0.00 2.64 2.64 96 1016.8
20260902013007 16 326 0.0 0.0 0.00 2.64 2.64 96 1016.6
20260902012507 16 326 0.0 0.0 0.00 2.64 2.64 96 1016.5
20260902012006 16 326 0.0 0.0 0.00 2.64 2.64 96 1016.7
20260902011506 16 326 0.0 0.0 0.00 2.64 2.64 96 1016.7
20260902011006 16 326 0.0 0.0 0.00 2.64 2.64 96 1016.7
20260902010505 16 327 0.0 0.0 0.00 2.64 2.64 96 1016.7
20260902010005 16 327 0.0 0.0 0.00 2.64 2.64 96 1016.7
20260902005505 16 326 0.0 0.0 0.00 2.64 2.64 96 1016.6
20260902005006 16 326 0.0 0.0 0.00 2.64 2.64 96 1016.5
20260902004505 16 326 0.0 0.0 0.00 2.64 2.64 96 1016.5
20260902004005 16 326 0.0 0.0 0.00 2.64 2.64 96 1016.6
20260902003508 16 326 0.0 0.0 0.00 2.64 2.64 96 1016.6
20260902003005 16 326 0.0 0.0 0.00 2.64 2.64 96 1016.8
20260902002506 16 326 0.0 0.0 0.00 2.64 2.64 97 1016.5
20260902002003 16 326 0.0 0.0 0.00 2.64 2.64 97 1016.5
20260902001503 16 326 0.0 0.0 0.00 2.64 2.64 96 1016.5
20260902001003 16 326 0.0 0.0 0.00 2.64 2.64 97 1016.5
20260902000503 16 326 0.0 0.0 0.00 2.64 2.64 97 1016.5
20260902000007 16 326 0.0 0.0 0.00 2.64 2.64 96 1016.5
20260901235603 16 326 0.0 0.0 0.00 2.64 2.64 97 1016.4
20260901235002 16 326 0.0 0.0 0.00 2.64 2.64 96 1016.4
20260901234502 16 326 0.0 0.0 0.00 2.64 2.64 96 1016.3
20260901234002 16 326 0.0 0.0 0.00 2.64 2.64 97 1016.3
20260901233504 16 326 0.0 0.0 0.00 2.64 2.64 97 1016.2
20260901233005 16 327 0.0 0.0 0.00 2.64 2.64 97 1016.2
20260901232502 16 327 0.0 0.0 0.00 2.64 2.64 97 1016.1
20260901232001 16 327 0.0 0.0 0.00 2.64 2.64 97 1016.1
20260901231501 16 327 0.0 0.0 0.00 2.64 2.64 97 1016.3
20260901231003 16 327 0.0 0.0 0.00 2.64 2.64 97 1016.3
20260901230501 16 327 0.0 0.0 0.03 2.64 2.64 96 1016.4
20260901230003 16 327 0.0 0.0 0.03 2.64 2.64 96 1016.3
20260901225500 16 327 0.0 0.0 0.03 2.64 2.64 97 1016.4
20260901225100 16 327 0.0 0.0 0.03 2.64 2.64 96 1016.3
20260901224600 16 327 0.0 0.0 0.03 2.64 2.64 96 1016.3
20260901224101 16 328 0.0 0.0 0.03 2.64 2.64 96 1016.3
20260901223604 16 328 0.0 0.0 0.03 2.64 2.64 96 1016.2
20260901223100 16 290 0.0 0.0 0.03 2.64 2.64 96 1016.2
20260901222602 16 288 0.0 0.0 0.05 2.64 2.64 96 1016.2
20260901222059 16 288 0.0 0.0 0.05 2.64 2.64 96 1016.2
20260901221611 16 288 0.0 0.0 0.05 2.64 2.64 96 1016.2
20260901221059 16 300 0.0 0.0 0.05 2.64 2.64 96 1016.2
20260901220601 16 263 0.0 0.0 0.03 2.62 2.62 96 1016.4
20260901220059 16 263 0.0 0.0 0.05 2.62 2.62 96 1016.4
20260901215559 16 263 0.0 0.0 0.05 2.62 2.62 96 1016.3
20260901215058 16 221 0.0 0.0 0.05 2.62 2.62 96 1016.3
20260901214559 16 221 0.0 0.0 0.08 2.62 2.62 96 1016.4
20260901214058 16 221 0.0 0.0 0.08 2.62 2.62 96 1016.5
20260901213558 15 211 0.0 0.0 0.08 2.62 2.62 96 1016.4
20260901213058 16 241 0.0 0.0 0.08 2.62 2.62 95 1016.4
20260901212558 16 202 0.0 0.0 0.05 2.59 2.59 95 1016.3
20260901212058 16 322 0.0 0.0 0.05 2.59 2.59 95 1016.3
20260901211557 16 238 0.0 0.0 0.05 2.59 2.59 95 1016.3
20260901211056 16 188 0.0 0.0 0.05 2.59 2.59 95 1016.2
20260901210555 16 259 0.0 0.0 0.05 2.59 2.59 95 1016.2
20260901210053 16 233 0.0 0.0 0.03 2.57 2.57 95 1016.1
20260901205554 16 354 0.0 0.0 0.03 2.57 2.57 95 1016.1
20260901205052 16 38 0.0 0.0 0.05 2.57 2.57 95 1016.1
20260901204551 16 314 0.0 3.2 0.03 2.54 2.54 96 1016.0
20260901204051 17 324 0.0 3.2 0.05 2.54 2.54 96 1015.9
20260901203553 17 351 0.0 3.2 0.08 2.54 2.54 96 1015.8
20260901203056 17 268 0.0 0.0 0.10 2.54 2.54 96 1015.8
20260901202550 17 346 0.0 0.0 0.10 2.54 2.54 96 1015.9
20260901202056 17 346 0.0 0.0 0.13 2.54 2.54 96 1015.8
20260901201551 17 330 0.0 0.0 0.13 2.54 2.54 96 1015.7
20260901201050 17 330 0.0 0.0 0.13 2.54 2.54 96 1015.8
20260901200550 17 330 0.0 0.0 0.15 2.54 2.54 95 1015.8
20260901200050 17 330 0.0 0.0 0.20 2.54 2.54 96 1015.7
20260901195650 17 330 0.0 0.0 0.20 2.54 2.54 95 1015.8
20260901195049 17 340 0.0 0.0 0.20 2.51 2.51 95 1015.8
20260901194549 17 340 0.0 0.0 0.20 2.51 2.51 95 1015.8
20260901194049 17 335 0.0 0.0 0.18 2.49 2.49 95 1015.7
20260901193550 17 337 0.0 0.0 0.15 2.46 2.46 95 1015.7
20260901193048 17 308 0.0 0.0 0.13 2.44 2.44 95 1015.7